Wind_Speed
44 47 44 40 38 39 42 43 43 43 42 42 43 44 44 45 43 40 43 46 45 50 51 49 51 49 44 41 37 33 32 31 32 33 34 34 35 38 40 41 41 40 39 40 41 41 41 40 40 39 39 39 41 42 43 42 43 43 43 44 44 44 45 46 46 47 47 48 48 47 47 46 45 44 44 43 43 43 44 45 45 45 45 44 43 43
47 48 42 37 38 39 41 42 42 42 41 41 41 43 43 42 41 40 43 44 44 49 49 47 50 48 43 40 36 32 31 30 29 31 35 35 35 38 41 41 41 38 37 38 38 38 38 39 39 38 39 40 41 42 42 42 43 44 44 44 45 45 45 46 46 47 48 48 48 47 46 45 44 43 42 42 43 44 45 46 47 47 46 45 44 44
50 49 40 37 40 40 40 41 42 42 43 43 42 44 44 42 42 44 45 44 44 48 48 47 49 47 42 39 35 31 29 30 31 33 36 36 35 38 41 41 39 35 35 35 35 34 35 36 37 38 39 40 41 42 42 42 43 43 43 44 45 45 45 46 46 47 47 47 46 45 44 43 43 43 43 44 45 46 47 47 47 47 46 45 45 44
53 49 42 40 42 42 42 43 44 45 47 46 46 47 46 43 46 49 47 45 45 48 48 48 50 47 40 38 34 30 29 30 33 37 38 36 35 38 39 39 36 33 33 33 32 31 32 34 36 38 40 40 41 41 41 42 42 42 43 44 44 45 46 46 46 47 46 45 44 43 42 43 44 44 45 46 46 47 47 47 47 46 45 45 45 46
54 50 45 44 44 45 47 47 47 48 49 49 49 48 47 47 49 51 49 48 47 49 48 48 52 50 41 38 35 29 30 32 32 36 39 37 35 37 37 35 34 32 32 32 31 31 33 35 37 38 40 41 42 42 42 42 42 43 44 44 45 45 47 47 46 47 46 45 45 45 44 45 46 46 47 47 47 46 46 46 46 45 45 46 47 48
54 50 47 47 48 48 50 50 48 49 51 52 51 48 48 50 51 51 50 50 50 51 49 48 54 53 43 40 37 32 33 34 32 32 37 38 36 35 35 35 34 32 31 31 30 31 33 36 38 41 43 44 45 44 44 44 44 44 44 45 45 47 48 48 48 48 47 47 47 47 48 48 48 48 48 47 46 46 46 46 46 46 46 48 49 51
55 50 49 49 49 50 51 51 48 48 52 55 53 49 49 51 51 51 51 52 53 53 53 51 53 55 51 44 41 39 37 35 34 32 33 36 37 37 37 36 33 30 29 29 30 32 34 37 41 44 46 47 47 46 45 45 44 44 44 45 46 48 49 49 49 49 49 49 49 49 49 49 49 49 48 48 46 46 46 46 46 47 48 49 51 52
55 51 50 49 50 51 52 50 48 48 52 56 55 51 50 50 50 51 51 53 55 55 58 55 50 55 59 52 46 45 43 38 36 35 32 33 35 37 38 36 30 28 29 29 31 33 36 39 43 45 47 47 47 46 45 45 44 44 44 45 47 48 49 50 50 50 51 51 50 50 50 49 49 49 49 48 47 46 46 46 47 48 49 50 51 52
56 52 51 51 52 52 51 49 49 49 52 55 54 52 51 50 51 52 53 55 56 58 61 57 49 53 62 59 53 50 44 40 38 36 33 30 29 30 35 38 33 28 29 31 33 36 39 42 43 45 47 47 46 46 46 45 44 44 44 45 47 48 49 50 51 51 52 52 51 50 50 50 51 50 49 49 48 47 47 47 48 49 50 51 52 52
56 53 52 52 52 51 50 49 49 49 52 53 53 53 51 51 53 54 55 56 58 62 63 56 50 54 61 60 56 51 45 43 42 38 33 27 26 28 32 39 39 35 33 34 37 38 40 42 43 45 46 46 45 45 46 45 45 45 45 45 47 49 50 51 53 53 52 52 51 51 51 51 51 50 49 49 48 48 48 49 49 50 50 51 52 53
55 55 54 53 51 50 50 49 49 50 52 53 53 53 53 54 55 56 58 58 61 64 61 55 52 55 61 60 56 54 52 50 44 38 32 26 28 32 34 39 43 42 39 39 39 38 39 40 42 45 45 44 45 45 46 47 46 46 45 44 48 50 51 53 54 53 52 52 51 51 51 51 51 50 49 49 49 49 49 50 50 51 51 52 53 54
55 55 55 52 50 49 50 49 50 51 52 52 52 53 53 56 58 59 61 60 62 64 60 57 56 58 62 62 59 58 57 54 46 38 33 30 32 35 37 39 41 40 40 40 39 38 38 41 43 45 46 46 47 48 49 48 47 46 44 45 49 51 51 52 53 52 52 51 51 51 50 50 50 49 48 49 49 50 50 51 52 52 53 53 54 56
56 56 54 53 51 49 49 50 50 50 50 50 51 52 53 57 60 62 64 63 62 63 60 59 60 62 64 62 59 58 56 55 49 39 36 36 35 37 39 38 36 35 37 38 39 39 40 43 45 47 48 49 50 51 51 49 47 46 44 45 49 52 51 50 49 50 50 50 50 49 48 48 48 48 48 49 50 51 51 52 53 54 55 56 57 58
57 57 55 54 52 49 48 48 48 48 49 50 51 52 54 57 60 63 64 64 63 64 63 62 64 66 65 61 58 55 54 56 51 42 40 39 38 38 37 34 33 35 37 39 40 41 42 44 46 48 50 51 52 52 51 49 48 47 44 45 49 51 50 48 47 47 47 47 47 47 47 47 48 48 49 50 51 52 53 54 55 56 57 58 59 60
57 58 57 54 51 49 49 47 48 49 51 53 54 55 57 59 60 62 63 63 65 65 65 66 68 68 66 62 60 58 56 57 54 46 42 39 37 34 31 30 34 38 40 40 40 41 42 43 45 48 50 52 53 52 50 50 50 49 46 46 49 50 48 47 46 45 45 46 47 48 48 48 49 50 51 51 52 54 55 56 57 58 59 60 61 62
53 56 56 54 52 51 52 50 50 52 54 56 56 58 60 59 57 59 62 63 65 67 67 69 70 68 65 63 61 61 60 59 56 48 40 37 34 30 28 31 36 39 41 41 40 40 41 43 46 49 51 54 54 52 50 51 51 50 47 47 49 49 46 46 46 45 46 48 49 50 51 51 51 52 52 53 54 55 56 57 58 59 60 61 62 63
54 56 54 55 56 54 54 53 52 53 55 58 59 60 60 58 57 60 63 64 65 68 69 69 69 67 64 62 61 61 60 60 56 46 38 36 32 29 31 34 36 38 40 39 38 39 41 43 46 50 53 55 55 53 52 52 50 48 46 45 48 48 45 45 46 46 48 50 52 53 54 54 54 54 54 54 55 56 57 58 59 60 61 62 63 65
56 58 56 57 60 58 56 55 55 56 59 61 62 62 61 62 62 62 63 65 66 69 70 67 68 67 64 64 64 62 62 61 55 44 38 36 32 31 34 35 36 38 39 39 38 40 42 44 47 50 53 56 57 56 54 52 49 46 44 44 47 47 45 45 46 47 49 51 53 55 56 57 57 57 57 56 57 58 59 59 60 61 62 63 65 66
55 58 57 57 61 62 60 60 61 62 63 63 63 63 63 65 66 65 65 66 66 69 71 68 66 65 64 63 64 64 64 61 53 44 39 36 33 33 35 35 36 38 40 41 42 43 47 49 50 50 53 55 56 56 55 52 49 47 45 45 46 46 45 46 47 49 51 52 54 56 57 59 59 59 58 58 59 60 60 61 61 62 63 64 65 68
56 59 59 57 59 61 61 62 64 63 62 62 62 62 63 65 67 68 68 67 67 68 71 68 63 63 62 60 60 63 63 59 51 45 42 38 34 35 36 37 37 39 40 42 44 47 50 52 51 49 50 51 52 53 52 50 50 49 47 45 45 46 46 47 49 51 53 54 55 57 58 60 61 60 59 60 61 61 62 62 62 63 63 65 67 69
59 61 61 59 58 59 59 57 58 58 58 60 62 62 63 64 66 68 68 67 67 69 70 68 64 63 64 63 63 63 59 54 51 48 46 43 40 40 40 41 42 42 43 43 46 49 51 52 51 50 50 50 50 49 49 50 52 52 50 48 48 48 48 49 51 52 54 56 58 59 61 61 62 61 60 61 62 63 64 64 64 64 64 66 68 70
62 60 59 59 61 63 62 58 58 59 60 63 65 64 64 63 64 68 68 66 66 69 69 68 68 67 66 66 66 60 55 52 51 51 50 47 46 46 45 45 46 47 48 48 49 51 52 52 52 53 53 52 50 49 49 51 53 53 53 52 51 50 50 51 52 54 56 58 60 61 62 62 62 62 62 62 64 65 65 65 65 65 66 67 69 71
65 64 65 66 67 67 65 62 62 62 62 64 65 64 63 63 63 67 69 67 67 69 68 68 72 71 67 64 62 57 53 52 52 53 52 50 50 50 47 47 48 51 53 54 54 55 54 52 53 56 56 54 51 51 52 53 54 55 56 55 53 52 52 53 54 55 57 60 61 62 63 63 63 63 63 64 65 66 66 66 66 66 67 68 70 71
65 66 67 67 67 65 63 62 62 62 63 65 64 61 60 62 62 64 67 68 70 70 67 69 75 75 69 65 60 55 53 53 53 53 52 51 52 52 50 49 51 54 56 57 57 58 56 54 55 56 56 54 53 53 55 56 56 57 58 58 57 56 56 57 57 57 58 61 63 63 63 64 64 64 65 66 67 67 67 67 67 67 68 69 70 70
66 67 68 68 69 68 65 63 63 64 65 65 62 60 60 62 62 64 66 69 71 69 66 70 76 75 70 65 59 53 53 54 52 51 52 53 53 52 52 53 54 55 56 56 57 57 57 56 55 55 56 56 55 56 56 57 57 57 58 60 60 60 60 60 59 58 59 62 64 64 64 65 65 65 66 67 68 68 67 67 67 68 69 69 70 70
67 68 69 69 71 71 68 64 63 64 65 66 65 64 64 64 64 66 68 69 71 72 70 73 76 74 68 62 59 56 53 53 51 50 52 53 53 53 54 54 54 54 54 54 55 56 57 56 55 56 57 57 58 58 58 58 56 56 59 60 60 61 60 59 59 60 61 63 65 65 66 66 66 67 68 68 68 68 68 68 68 69 70 70 71 71
69 69 70 71 73 74 72 69 65 66 69 69 67 67 68 67 68 70 72 73 74 75 75 74 75 74 68 62 60 57 53 53 52 51 52 54 55 55 54 52 51 52 53 55 57 57 57 57 58 58 58 58 59 60 60 59 57 57 59 61 61 61 60 59 60 62 63 64 65 67 68 68 68 68 69 69 68 68 68 68 69 70 70 71 72 72
65 67 68 70 74 75 74 72 69 69 72 72 70 69 69 68 69 73 76 75 74 77 80 76 72 74 72 65 60 56 54 53 51 49 51 53 55 55 52 51 51 53 56 58 59 58 57 58 58 57 56 57 58 60 60 59 58 59 61 61 62 62 61 62 63 64 64 65 66 67 68 69 69 69 69 69 69 69 69 69 69 70 70 71 72 73
66 69 68 69 72 72 72 72 71 70 72 73 74 72 70 71 72 73 75 75 76 80 83 77 73 74 73 67 60 56 55 54 52 52 53 54 53 51 52 54 55 58 60 60 59 57 56 56 55 56 58 60 61 62 61 61 62 62 63 63 64 64 65 66 66 65 65 66 67 67 68 68 69 69 69 69 70 70 69 69 69 70 71 72 73 74
65 68 67 68 71 71 69 69 69 70 72 73 73 73 73 74 74 72 74 78 80 81 80 76 75 74 71 66 62 57 54 54 55 55 55 53 51 50 56 61 62 62 63 61 60 59 58 59 61 64 66 67 67 66 65 66 66 66 66 66 67 68 69 68 67 66 67 68 68 67 67 68 68 69 70 70 70 69 69 70 70 71 72 73 73 73
65 65 64 65 69 70 67 66 65 66 68 70 72 74 75 76 75 74 77 79 78 77 77 75 75 74 69 62 57 53 51 53 54 52 50 49 49 52 61 67 67 66 65 63 63 63 63 65 67 68 67 66 66 66 67 68 68 67 68 69 70 71 70 69 68 68 69 69 67 67 67 68 69 70 70 70 69 69 70 71 72 73 74 73 71 69
71 70 69 70 75 75 67 63 64 65 67 71 70 69 73 78 77 73 71 70 70 72 73 72 73 71 63 55 51 51 51 52 50 47 48 50 53 60 68 71 69 66 63 62 64 65 66 66 63 61 61 62 64 65 66 67 67 68 69 70 71 71 71 71 70 69 69 67 66 67 67 68 68 68 68 68 68 70 71 72 74 75 73 70 67 66
82 82 82 82 86 84 73 68 71 72 75 77 69 60 61 63 61 58 58 60 61 61 63 66 66 62 55 49 50 52 52 51 48 49 55 61 65 69 72 70 65 62 62 63 65 65 64 61 58 57 60 63 64 64 64 65 66 68 69 70 70 70 70 69 68 67 67 66 65 65 65 64 64 65 66 67 69 71 73 74 74 72 68 65 65 66
90 88 86 84 86 87 81 77 78 77 78 79 72 63 56 52 49 51 55 57 55 54 56 59 58 56 54 52 53 54 53 52 55 62 69 72 73 72 69 65 62 62 63 64 64 62 59 58 58 60 62 62 62 62 63 64 66 66 66 66 66 65 65 64 64 65 64 63 62 60 60 60 61 63 66 69 71 73 75 74 70 66 64 63 64 65
89 86 84 83 85 87 84 80 80 83 84 82 74 65 59 56 57 60 61 59 57 56 57 60 63 65 62 59 58 57 58 62 68 74 77 79 76 70 64 62 61 60 60 59 58 57 56 57 59 60 59 58 58 60 62 64 64 62 60 60 59 59 59 59 59 59 58 57 56 55 55 56 59 64 68 72 75 75 72 68 64 62 62 62 63 64
87 84 82 81 82 83 82 83 85 87 85 79 72 67 64 65 65 66 67 65 61 61 65 71 76 76 72 69 68 68 71 75 75 75 78 79 73 63 60 61 59 57 56 55 55 54 54 54 56 55 55 56 57 59 61 62 61 57 55 55 56 56 57 58 57 57 56 56 56 56 56 57 60 64 69 72 72 69 66 63 62 61 61 62 64 66
88 86 83 82 81 81 82 84 84 82 79 76 73 70 69 68 66 67 75 78 74 73 78 81 82 80 78 78 78 78 78 75 70 71 76 74 63 54 55 58 56 54 54 52 51 51 51 51 53 54 54 54 55 57 58 59 59 58 59 61 61 62 64 64 63 62 63 63 62 61 60 60 60 62 68 71 69 66 64 63 63 62 62 64 66 66
89 88 86 85 86 85 84 83 81 81 81 77 70 67 68 70 71 76 87 94 91 87 86 85 83 83 82 82 80 78 75 70 67 70 70 64 55 50 51 53 52 51 51 51 52 53 54 56 58 58 58 57 58 60 62 64 65 66 69 70 70 70 70 68 66 65 64 63 61 60 60 60 61 65 70 72 69 66 66 66 67 67 66 66 67 67
87 84 80 81 85 86 86 86 86 88 91 89 81 76 74 76 81 87 96 101 99 93 88 85 84 83 80 78 75 72 68 66 68 67 61 54 51 50 49 51 52 51 53 56 58 59 61 62 63 64 63 63 64 65 67 69 71 71 71 70 69 68 66 65 64 63 61 59 57 57 60 63 67 72 74 74 72 71 71 71 71 70 68 69 69 68
89 87 84 84 86 87 88 91 94 96 99 99 95 89 84 84 88 93 100 104 100 93 88 85 82 78 75 72 70 69 67 66 66 63 56 51 53 55 54 55 56 57 59 59 60 62 63 63 64 64 64 64 65 66 67 69 71 71 69 66 64 62 60 61 61 59 58 57 56 58 62 67 71 71 71 70 69 69 68 68 68 68 70 71 70 66
88 89 90 91 93 94 95 99 102 103 102 99 96 93 90 89 92 97 101 99 93 87 83 81 78 74 72 70 70 69 68 67 66 63 58 55 58 61 61 61 61 61 61 60 60 60 60 61 62 62 63 64 65 66 67 68 67 66 65 63 61 58 57 58 58 58 57 56 57 58 62 65 65 61 57 57 58 60 61 63 66 69 70 70 68 65
86 87 90 91 92 94 97 99 101 102 100 96 92 89 88 88 93 97 97 93 88 83 79 74 71 69 68 67 67 67 68 68 68 66 61 58 60 65 66 65 64 63 61 60 60 59 58 59 61 63 65 66 66 67 66 65 63 62 63 62 59 57 57 57 58 58 57 57 58 59 60 59 58 55 53 55 57 60 63 66 68 69 69 68 67 65
89 90 92 94 93 94 96 98 100 101 98 91 86 85 86 88 92 93 91 88 87 83 77 71 67 64 63 64 64 64 65 65 63 62 61 60 62 65 66 66 66 65 64 64 63 61 60 60 63 65 66 66 65 65 65 64 62 61 60 59 56 55 56 57 57 58 58 58 59 57 55 54 55 56 57 60 62 64 66 68 69 68 67 66 65 64
91 91 93 93 92 93 96 97 97 95 90 83 80 80 82 83 84 83 82 82 80 76 70 65 61 57 56 58 58 56 55 55 55 56 57 58 60 62 63 64 66 68 69 68 66 63 61 62 65 66 65 64 63 64 65 66 66 64 62 61 59 58 59 60 59 59 60 61 61 58 55 55 55 57 59 61 63 65 66 67 67 67 66 66 66 66
89 89 89 87 85 85 87 89 89 86 82 77 75 75 75 74 73 71 69 69 68 63 58 54 54 55 55 55 54 52 51 53 54 56 57 58 60 63 64 64 64 65 66 65 62 61 64 66 67 66 64 64 66 67 67 67 68 68 67 67 66 66 66 65 64 63 63 62 62 61 59 58 58 59 60 61 62 64 66 67 68 69 69 68 68 67
84 84 85 86 86 85 84 84 83 81 79 76 76 75 75 75 73 69 65 64 64 62 60 60 62 62 60 57 56 57 60 63 63 63 64 64 64 64 64 61 58 57 58 59 62 66 70 71 70 68 68 69 70 70 69 68 68 68 67 67 66 65 64 62 62 63 65 65 64 63 62 61 62 62 61 62 63 65 67 69 70 70 70 69 68 66
88 85 85 86 86 86 84 82 79 78 78 78 78 79 79 79 75 69 64 64 66 68 71 71 67 61 58 59 63 68 72 71 68 66 65 64 64 63 61 59 58 58 58 62 66 69 71 72 71 71 71 72 71 70 68 68 67 66 66 65 63 61 60 60 61 63 65 66 67 66 65 63 62 62 62 63 65 67 68 69 69 69 68 68 67 65
96 94 94 94 93 93 92 89 85 82 83 83 82 82 84 84 81 73 66 67 71 76 79 79 73 68 69 72 76 77 74 68 65 65 66 66 66 63 61 61 62 61 60 62 63 65 68 71 73 73 72 71 70 69 70 70 68 65 64 63 62 62 63 64 65 67 67 68 69 68 67 66 64 63 63 64 65 67 68 68 68 68 68 68 67 66
90 94 97 99 101 103 101 99 97 96 95 92 89 86 85 85 85 81 76 76 79 82 83 83 82 81 81 82 81 79 74 68 65 66 66 65 63 62 62 64 65 64 64 66 69 73 77 79 79 78 75 72 70 69 69 69 67 65 64 64 64 64 64 65 67 69 69 70 70 70 69 68 66 65 65 66 67 67 66 66 66 67 68 68 68 65
80 85 89 91 96 100 99 97 98 101 104 103 99 95 90 85 84 83 83 85 87 86 86 88 90 90 87 85 83 82 80 77 74 72 72 71 70 70 70 72 73 75 79 84 87 89 88 85 83 84 83 80 75 71 70 69 68 66 66 66 65 63 63 65 67 69 71 71 70 70 70 69 68 68 68 67 66 66 65 66 67 68 68 68 67 64
85 84 83 83 87 90 90 87 85 87 91 93 92 89 86 83 82 83 87 92 94 93 92 94 96 96 93 90 86 85 86 86 84 83 84 85 86 87 88 89 91 94 97 99 100 98 93 88 86 87 87 85 81 77 76 75 73 71 70 69 67 66 68 69 68 69 71 69 67 69 72 71 69 69 67 65 65 65 66 67 68 68 69 67 65 61
Wind_Direction
286 285 286 292 295 291 288 287 286 286 287 287 287 286 287 287 288 291 289 287 287 285 285 287 286 286 288 288 289 288 286 285 287 290 291 294 296 297 297 298 298 298 296 293 291 291 291 289 287 286 285 284 283 283 284 285 286 287 288 289 289 289 289 289 289 289 289 289 288 288 288 288 288 288 287 287 286 283 281 280 278 277 275 275 274 274
285 284 289 295 292 288 287 287 287 287 288 287 288 287 286 287 290 291 287 286 286 285 286 287 286 285 287 289 290 290 290 289 288 290 292 295 298 298 297 297 296 297 295 292 291 290 288 286 285 284 283 282 281 282 283 284 284 285 286 287 287 288 288 288 289 289 289 288 288 287 287 287 287 287 287 286 285 283 281 279 277 276 275 275 274 274
284 284 290 292 288 287 286 286 287 288 288 288 288 287 287 289 291 289 286 287 287 286 287 288 285 285 287 289 289 291 292 292 295 296 294 295 298 297 295 295 295 296 294 292 291 289 287 286 285 283 282 282 282 283 283 283 283 284 285 286 286 288 289 289 290 290 289 289 288 287 287 287 287 287 286 286 284 282 280 278 277 276 275 275 274 274
282 285 288 287 286 286 285 285 286 287 287 288 287 288 289 291 290 288 287 288 287 287 288 288 286 284 285 286 287 290 291 293 298 297 294 297 298 295 293 293 294 295 294 292 290 288 286 286 285 284 283 283 283 283 283 283 283 284 285 286 287 288 289 289 290 290 290 289 287 287 288 288 289 288 287 286 284 282 281 279 278 276 275 275 274 274
281 284 286 285 285 285 284 284 286 287 287 287 287 288 290 290 289 288 289 289 288 287 287 289 287 284 284 285 285 287 289 292 293 292 296 302 300 294 293 293 294 295 293 290 288 286 285 286 286 286 285 285 285 284 284 284 284 284 285 286 288 288 288 288 288 288 289 287 286 286 288 289 290 289 287 286 284 283 281 280 279 277 276 275 274 275
278 282 284 285 284 284 283 283 285 286 287 287 287 288 289 289 289 288 289 289 288 287 286 288 288 286 285 286 287 289 291 290 289 293 302 306 302 296 294 294 295 294 291 288 286 284 284 286 288 287 286 286 285 284 283 283 283 284 284 286 287 287 287 287 286 285 286 286 286 286 286 288 289 289 287 285 283 282 281 280 279 278 277 276 276 277
277 280 282 282 282 281 281 282 284 286 287 286 286 288 288 288 288 288 289 288 288 288 287 287 289 291 290 290 292 295 293 290 293 302 308 306 302 299 296 294 294 292 288 285 283 283 284 286 287 286 285 284 282 282 282 281 281 282 283 286 287 287 287 287 285 284 284 285 286 286 286 287 287 287 286 284 282 281 280 280 279 279 278 278 278 279
277 279 279 279 279 279 279 282 284 285 284 284 286 288 287 287 288 287 287 287 287 287 286 285 289 293 293 294 297 296 292 293 301 309 309 303 299 298 297 294 291 287 283 282 282 283 285 285 284 283 282 280 279 279 279 279 279 280 283 287 288 288 287 286 285 284 284 285 286 286 286 286 286 286 285 284 282 281 281 281 281 280 280 280 281 282
276 276 277 277 277 277 280 282 283 282 282 283 285 285 285 286 286 285 285 285 285 285 283 285 291 293 292 294 295 291 292 298 306 311 309 302 299 298 296 295 293 288 283 284 285 285 284 282 281 280 278 277 276 276 277 277 278 280 283 287 288 287 287 286 285 284 284 285 285 286 286 285 285 285 285 284 282 282 282 282 282 282 282 283 284 284
274 275 276 275 275 278 280 280 280 280 279 280 282 283 284 285 284 284 283 283 284 282 283 288 295 294 291 291 291 291 297 302 308 311 306 303 305 301 297 296 296 294 290 289 287 285 282 280 279 277 275 275 276 276 276 276 277 279 282 285 286 285 285 285 284 283 283 283 284 284 284 284 284 284 284 283 282 282 283 283 283 284 284 285 286 287
273 274 273 273 276 277 277 277 277 277 277 278 280 282 283 283 282 282 281 282 282 281 285 292 293 291 289 288 290 296 302 304 307 307 302 303 305 300 295 293 293 294 294 291 288 284 281 279 277 276 276 277 277 277 277 277 277 278 280 282 282 281 281 282 283 283 283 283 282 283 283 282 283 283 282 281 281 282 283 284 285 285 285 286 287 288
271 271 273 274 275 274 275 275 274 274 275 277 279 280 281 281 280 280 280 280 281 283 289 292 290 287 284 285 291 299 302 303 303 302 299 304 305 299 295 292 290 290 290 289 287 284 282 279 277 277 278 279 279 279 278 278 279 280 280 281 281 280 279 281 283 284 284 283 282 282 282 281 282 282 281 281 281 282 284 285 286 286 286 287 288 288
269 269 272 273 273 274 275 275 274 275 275 276 276 276 277 278 278 279 279 280 282 284 287 287 286 284 282 286 292 298 300 299 300 300 301 306 306 301 296 293 291 289 286 284 283 282 281 280 279 279 280 280 280 280 280 281 281 281 281 281 280 280 281 283 284 285 284 283 282 282 282 282 282 282 281 281 283 284 286 286 286 286 287 288 288 289
268 267 269 271 273 275 275 273 274 273 272 272 272 272 273 274 275 277 279 282 283 283 284 284 282 282 283 288 293 295 295 295 297 301 304 307 307 301 297 295 290 285 282 280 279 279 279 279 280 280 281 281 280 281 283 285 285 284 283 281 280 281 283 284 284 285 285 284 283 283 285 286 285 284 283 283 285 286 287 286 286 286 287 288 289 290
271 269 268 270 271 271 270 270 271 272 271 270 270 270 270 271 273 276 279 280 281 281 281 280 280 282 286 291 293 292 292 293 296 301 304 305 304 301 297 290 284 281 280 279 278 277 278 279 280 281 281 280 281 283 286 288 288 287 285 283 281 282 284 285 285 286 286 286 286 288 289 289 287 286 285 285 286 287 286 286 286 286 287 288 289 290
277 273 270 271 270 268 268 268 269 271 271 271 271 270 271 272 275 277 277 277 277 277 277 278 279 283 287 289 289 290 291 293 295 301 303 300 301 300 291 284 282 282 280 279 278 278 279 280 281 280 280 280 282 285 289 291 291 290 288 285 283 284 285 285 286 287 288 289 290 291 291 290 288 287 286 286 286 286 285 285 285 285 287 288 289 290
279 275 272 272 272 269 268 268 268 270 271 270 270 271 274 276 276 275 275 275 275 276 276 278 281 284 286 287 286 287 290 291 293 299 302 298 297 292 284 284 286 284 280 279 280 282 282 281 279 278 278 280 283 287 291 294 294 292 290 288 286 286 287 286 286 287 288 291 292 292 291 290 289 288 286 286 285 285 285 285 285 285 287 288 289 290
278 276 274 273 272 271 270 270 269 270 270 270 271 273 275 275 274 274 275 275 275 275 276 277 280 283 286 287 287 290 290 290 293 301 303 298 294 287 283 286 289 287 283 282 284 285 285 283 280 278 278 280 284 288 292 294 294 292 292 292 291 291 290 287 286 287 289 291 292 292 291 290 289 288 287 286 285 285 285 285 285 286 287 289 289 290
279 279 276 274 273 272 271 271 271 271 272 275 276 276 274 273 272 272 273 273 274 275 275 276 279 281 283 285 288 290 289 289 296 303 302 298 292 287 285 286 288 290 287 286 286 286 286 285 283 281 281 283 286 288 291 292 291 291 294 295 295 295 293 291 289 289 290 291 292 292 291 290 290 289 288 286 285 285 285 286 286 287 288 289 290 290
279 278 277 277 276 274 272 271 272 273 276 279 278 276 273 271 271 271 271 272 273 274 274 276 279 280 280 282 283 283 286 292 300 302 300 299 294 288 285 285 287 289 288 286 285 285 285 285 285 286 286 286 287 288 289 290 290 292 295 296 296 295 294 292 291 290 291 291 292 291 291 290 290 289 288 287 286 285 286 286 287 287 288 289 290 290
277 275 277 279 277 274 273 273 275 276 276 275 275 274 272 272 271 270 270 273 273 272 272 275 277 277 278 279 279 280 287 295 298 298 298 299 295 289 286 287 287 287 286 283 283 283 284 285 287 288 288 289 289 288 288 289 290 293 295 295 295 294 292 291 291 291 291 291 291 291 291 291 290 289 288 287 286 286 286 286 287 287 288 289 289 289
276 275 275 275 274 274 276 277 276 275 272 271 271 271 271 272 272 270 271 274 274 272 273 275 276 276 278 279 280 285 291 293 294 296 297 297 293 289 287 286 287 286 283 280 279 281 284 286 287 287 287 289 289 288 288 289 290 292 292 292 291 291 291 291 291 291 291 291 290 291 291 291 290 289 288 287 286 286 286 286 287 287 288 289 289 288
276 274 273 273 275 276 276 275 274 272 271 270 269 269 271 271 271 271 272 274 274 272 274 275 273 275 281 281 283 289 292 292 293 294 295 294 291 289 287 285 285 284 282 281 281 282 284 283 283 283 285 287 288 288 288 288 289 290 289 289 290 290 291 292 291 291 290 290 290 290 291 291 289 288 287 287 286 285 286 286 287 287 288 289 288 287
275 274 273 275 274 272 271 271 271 271 270 269 271 273 275 274 273 272 271 271 270 269 272 271 268 274 284 285 285 290 291 290 291 291 291 290 289 288 287 285 284 283 283 285 285 285 285 282 280 282 284 286 287 287 287 287 288 288 288 290 291 291 291 291 290 290 289 289 289 290 291 290 289 287 287 286 286 286 286 286 287 288 288 288 288 286
274 272 272 272 271 269 268 268 268 269 269 272 274 275 275 276 275 273 272 270 268 268 269 266 266 275 286 287 286 288 288 287 286 285 286 286 285 285 285 285 285 286 287 288 288 287 286 284 284 284 286 286 287 287 287 287 288 287 288 290 290 290 290 289 289 289 288 288 288 289 289 289 288 287 286 286 286 286 287 287 287 288 288 287 286 285
271 270 270 269 269 269 268 267 268 270 271 271 272 272 273 273 272 271 270 268 268 270 267 264 268 278 285 285 285 286 286 284 282 281 282 281 281 282 284 286 287 289 290 290 289 288 286 286 286 285 285 286 287 287 287 288 288 288 289 290 290 289 288 288 288 288 287 287 288 288 288 288 287 286 286 286 286 287 287 287 287 288 287 286 284 284
269 268 267 267 268 270 270 268 268 270 271 270 270 271 271 270 270 269 267 267 270 272 269 267 273 279 280 280 283 284 282 280 279 279 279 279 281 283 284 284 287 289 290 290 288 288 288 288 286 285 285 286 286 287 287 288 289 288 289 289 289 288 289 289 288 287 287 287 286 287 287 288 287 286 286 286 286 286 286 286 287 286 285 284 284 284
270 269 268 268 269 272 273 273 271 270 271 271 270 269 269 270 269 267 268 270 273 271 268 270 275 276 277 280 281 281 279 276 276 276 276 278 281 282 281 281 284 287 288 289 290 291 291 290 287 287 288 289 289 290 290 290 289 288 288 289 289 289 289 289 288 287 286 285 285 285 286 287 286 286 286 287 287 286 286 286 286 285 284 284 284 284
271 272 272 272 273 273 274 273 272 271 270 270 269 269 268 268 267 268 270 271 269 266 267 271 273 274 276 279 278 277 275 275 276 277 277 278 277 278 281 283 283 285 287 290 292 293 292 290 288 289 290 291 292 292 291 290 290 289 289 289 289 290 289 288 287 286 285 284 284 285 285 286 285 285 286 287 286 286 285 285 284 283 283 283 283 284
273 275 275 274 273 272 271 270 269 269 267 266 267 268 267 266 266 267 269 266 264 265 268 271 272 272 273 274 275 274 273 275 277 277 277 275 272 277 286 288 285 286 289 292 292 290 289 288 288 289 290 291 291 290 290 290 289 289 288 289 289 289 289 287 286 284 283 283 284 284 285 285 285 286 286 287 286 286 285 285 284 283 282 282 283 285
273 275 274 274 274 271 269 270 269 269 268 268 266 265 265 266 268 268 266 265 265 266 267 268 268 268 269 270 272 272 272 274 276 275 273 271 271 280 288 289 287 289 291 292 290 289 288 289 290 290 290 291 291 290 289 288 287 287 287 288 288 288 287 285 283 282 282 282 283 284 285 286 286 287 287 286 286 286 286 285 283 282 282 283 284 285
271 272 272 274 275 273 270 269 269 270 273 273 269 266 267 268 270 269 266 265 266 265 264 264 264 265 267 268 267 268 270 273 273 272 272 274 279 284 287 287 288 290 291 290 289 290 292 292 291 289 289 290 290 288 287 286 285 285 286 286 286 286 285 283 281 281 282 283 284 285 285 286 286 287 286 286 287 287 286 285 283 282 282 283 285 288
270 273 274 275 276 275 272 271 273 274 273 270 271 276 276 270 266 264 261 260 261 261 262 262 263 267 270 269 266 266 269 271 272 275 281 285 287 287 287 288 289 290 290 290 291 292 291 289 287 287 288 288 286 284 283 283 283 283 284 284 285 285 284 283 283 283 284 284 285 285 285 286 286 286 286 287 287 287 286 285 283 282 283 285 288 291
271 274 275 275 276 276 274 275 276 272 267 269 274 278 273 264 260 260 260 259 258 259 262 264 267 271 274 273 270 269 270 272 276 283 288 290 289 289 290 289 290 291 290 290 290 289 285 282 283 285 286 284 282 281 281 281 281 282 283 284 285 285 285 285 285 285 285 284 284 285 285 286 287 287 288 287 286 286 284 283 282 283 284 287 290 293
271 272 273 274 276 277 277 276 271 266 269 274 275 270 265 264 265 264 262 262 261 261 263 269 275 279 278 277 275 275 278 281 284 288 289 288 290 293 291 288 288 288 286 284 283 279 277 278 280 281 281 279 278 279 279 279 280 282 285 287 288 288 287 286 285 284 284 284 285 286 287 288 289 289 288 286 285 283 282 281 281 283 286 290 294 296
269 270 272 274 275 274 272 270 266 268 273 272 267 265 266 268 268 267 266 264 263 265 270 275 278 279 279 279 281 282 285 287 289 290 289 290 294 295 287 282 282 282 279 277 275 273 272 274 275 276 276 276 277 278 278 278 278 280 285 288 289 288 287 286 284 284 284 286 288 289 289 290 290 288 287 285 283 281 280 280 282 285 288 293 296 297
269 269 270 271 269 267 267 266 266 268 267 261 260 264 268 267 266 267 270 269 268 271 275 277 277 278 280 283 286 287 288 288 288 288 290 294 295 289 280 277 278 277 275 273 272 272 273 274 274 276 276 277 278 278 277 276 276 278 283 287 288 287 286 287 286 285 285 286 287 288 288 288 288 287 286 284 282 280 280 282 285 287 290 294 296 296
269 270 270 269 267 266 267 266 266 267 264 260 260 262 264 265 267 270 275 277 275 274 275 276 279 282 284 286 286 286 287 287 285 286 291 294 290 280 274 274 274 273 273 272 273 274 276 277 279 280 279 278 278 278 278 280 281 282 284 287 288 288 288 289 288 286 285 286 286 286 286 286 286 285 284 282 281 282 283 286 288 288 290 294 296 295
268 268 267 265 263 263 265 266 267 269 269 267 266 265 265 267 272 277 279 279 278 279 281 282 285 286 286 285 285 285 284 283 282 286 292 291 280 271 268 269 271 273 274 277 279 279 280 281 282 282 281 280 281 282 284 286 288 289 290 290 290 290 290 290 288 287 286 284 283 283 283 282 281 280 280 281 282 284 286 287 287 288 290 293 292 291
265 265 263 262 261 261 262 264 266 267 269 271 272 271 271 272 276 278 277 277 280 286 288 287 286 285 284 283 282 281 280 279 282 287 289 282 271 266 265 266 268 272 276 280 283 283 283 283 282 282 282 282 283 285 288 289 290 291 291 290 290 290 289 288 287 287 285 283 280 279 279 280 282 283 283 284 286 288 288 289 289 289 289 288 287 287
264 263 263 262 263 264 264 266 267 268 270 272 274 275 276 277 276 273 274 278 284 287 287 286 285 284 282 280 278 277 278 279 281 283 282 274 267 265 265 266 268 273 278 281 282 281 280 281 282 283 284 284 285 286 288 288 288 288 289 289 290 289 287 286 286 287 286 285 283 281 280 282 286 289 290 291 293 293 293 293 291 290 288 287 286 286
264 264 265 265 266 267 268 270 271 272 272 273 276 278 278 277 274 273 277 281 284 284 284 284 283 282 280 278 278 278 278 277 277 277 274 270 265 263 264 267 271 275 278 278 278 277 277 280 284 286 287 287 287 287 288 287 287 288 289 289 287 286 285 285 285 287 288 288 288 287 284 283 287 292 295 297 298 297 295 294 292 291 290 288 287 286
265 266 267 267 268 270 270 271 272 273 275 277 279 278 276 275 275 277 280 281 280 281 282 282 280 279 279 278 279 278 276 274 272 271 269 267 264 263 264 268 272 274 275 276 275 275 277 282 286 288 288 289 289 289 289 288 287 288 289 287 284 283 285 286 286 287 288 288 288 288 286 286 290 295 296 296 296 295 295 294 294 293 292 289 288 287
266 267 269 269 270 270 270 270 271 274 277 278 278 276 275 276 278 279 279 278 277 277 277 276 274 273 273 273 272 271 270 269 268 266 265 264 265 265 266 268 270 271 272 272 272 273 276 282 286 286 286 287 288 289 289 288 287 287 287 286 284 284 286 287 287 287 288 287 286 287 286 286 292 297 297 295 295 296 296 296 295 294 293 291 290 289
265 266 267 268 269 268 269 271 273 274 275 275 275 276 276 277 278 277 275 273 270 268 268 269 269 269 269 267 265 265 267 267 265 264 263 263 264 265 265 267 268 269 269 269 270 274 278 282 284 285 285 285 288 289 288 287 286 285 284 284 284 283 284 285 286 287 287 286 286 289 289 290 295 299 300 298 297 298 298 298 297 296 294 292 290 288
264 264 265 265 266 266 266 268 270 271 272 273 274 275 276 276 276 273 269 266 266 266 268 273 275 274 271 267 267 272 277 278 273 269 266 264 263 263 264 265 266 267 268 270 273 277 281 282 284 284 284 285 287 287 286 285 285 285 283 282 282 282 282 283 284 286 287 286 286 289 292 293 295 298 298 297 296 296 296 296 295 294 292 290 287 286
260 261 263 263 264 264 263 263 264 265 267 270 271 272 273 273 272 269 265 264 267 269 273 278 277 270 264 266 272 278 281 280 275 271 268 265 262 262 262 262 263 265 269 273 277 280 282 284 284 284 284 286 287 286 285 284 284 283 282 282 282 281 282 283 285 286 287 287 286 288 290 293 295 296 296 296 296 295 294 294 293 292 289 287 285 285
258 258 258 259 260 261 262 262 263 264 265 268 269 269 269 269 267 263 259 260 265 271 275 277 274 269 268 271 275 278 278 275 270 268 267 264 262 262 262 261 261 264 270 276 279 281 284 286 286 285 286 287 287 286 285 284 282 280 280 280 281 282 284 285 286 285 286 286 286 286 288 292 295 295 296 296 295 294 292 292 291 290 287 285 285 284
258 257 258 259 259 260 261 262 263 265 265 265 265 264 263 263 262 259 257 259 266 272 274 274 274 273 273 274 275 276 274 270 267 268 268 265 263 263 262 262 262 265 271 278 281 281 283 285 285 285 286 286 286 286 287 284 280 276 276 277 280 283 287 288 288 287 285 284 284 284 286 290 294 295 296 297 295 292 291 290 290 288 286 284 284 283
252 253 256 256 256 258 260 260 260 261 261 261 260 258 258 258 257 257 257 261 266 270 271 272 273 273 273 273 273 273 272 270 269 269 269 268 266 265 265 266 267 269 275 280 282 282 283 283 282 282 283 283 283 284 286 285 279 274 273 274 278 284 287 289 290 289 286 284 283 284 286 289 293 295 296 295 293 291 290 290 288 286 284 282 282 282
249 250 251 251 251 254 255 254 252 252 252 253 252 252 251 251 252 255 259 264 267 269 270 271 272 271 270 270 270 270 271 271 271 270 270 270 269 269 270 270 271 273 276 278 280 281 281 281 280 280 281 280 278 279 282 283 280 275 271 272 276 283 287 289 289 288 287 285 285 286 288 290 293 295 294 292 290 290 291 290 287 284 282 280 280 282
Height
5821 5817 5819 5823 5823 5821 5817 5816 5814 5813 5812 5811 5809 5807 5806 5804 5805 5807 5802 5798 5798 5792 5791 5792 5788 5788 5791 5794 5797 5799 5798 5798 5796 5794 5793 5793 5791 5788 5785 5782 5781 5780 5779 5776 5774 5773 5772 5771 5770 5769 5768 5767 5765 5764 5762 5761 5760 5759 5758 5757 5756 5755 5753 5752 5751 5749 5748 5747 5745 5744 5743 5742 5741 5740 5739 5738 5737 5736 5736 5735 5734 5734 5733 5733 5732 5732
5814 5812 5817 5821 5818 5816 5813 5811 5810 5808 5807 5806 5805 5803 5801 5801 5801 5801 5797 5795 5793 5787 5786 5788 5783 5782 5786 5788 5791 5793 5793 5792 5793 5792 5789 5788 5787 5783 5780 5777 5776 5776 5774 5772 5770 5769 5767 5766 5765 5764 5763 5762 5761 5759 5759 5757 5756 5754 5753 5752 5751 5750 5749 5747 5746 5744 5743 5742 5740 5739 5738 5737 5736 5735 5734 5733 5732 5731 5730 5729 5728 5728 5727 5727 5727 5726
5807 5807 5814 5816 5813 5811 5810 5808 5806 5804 5803 5802 5801 5798 5797 5798 5796 5794 5791 5791 5789 5783 5781 5781 5776 5777 5782 5784 5786 5789 5788 5787 5787 5787 5785 5784 5783 5779 5775 5773 5772 5772 5769 5767 5766 5764 5763 5762 5761 5760 5758 5757 5756 5755 5754 5753 5751 5750 5749 5748 5746 5745 5743 5741 5741 5739 5737 5736 5735 5734 5733 5732 5730 5729 5728 5728 5726 5725 5724 5723 5722 5722 5722 5721 5721 5720
5800 5804 5810 5811 5808 5807 5805 5804 5803 5800 5798 5797 5796 5794 5793 5795 5791 5786 5786 5786 5784 5779 5776 5775 5769 5770 5777 5778 5781 5784 5784 5784 5782 5779 5779 5779 5778 5773 5770 5768 5767 5767 5765 5762 5762 5760 5759 5757 5756 5755 5754 5753 5752 5751 5749 5748 5747 5746 5744 5743 5741 5740 5738 5736 5735 5733 5732 5731 5729 5728 5727 5726 5725 5724 5723 5721 5720 5719 5718 5717 5717 5716 5716 5716 5715 5714
5796 5800 5804 5805 5804 5802 5800 5799 5799 5796 5793 5791 5791 5791 5789 5790 5786 5782 5780 5780 5778 5774 5771 5770 5761 5760 5771 5772 5775 5780 5780 5780 5779 5774 5772 5773 5771 5767 5764 5764 5763 5762 5760 5758 5757 5756 5754 5753 5751 5750 5749 5747 5747 5745 5744 5743 5742 5740 5739 5737 5736 5734 5732 5731 5730 5728 5726 5725 5723 5723 5721 5720 5719 5718 5716 5715 5714 5713 5712 5711 5711 5710 5710 5710 5709 5708
5792 5796 5799 5799 5798 5797 5794 5793 5795 5793 5788 5785 5786 5788 5786 5783 5781 5778 5776 5774 5771 5769 5767 5766 5756 5749 5760 5767 5767 5773 5774 5773 5774 5772 5769 5765 5763 5761 5759 5758 5757 5756 5755 5754 5753 5752 5750 5748 5746 5745 5743 5742 5741 5740 5739 5738 5736 5735 5733 5732 5730 5729 5727 5725 5724 5722 5721 5719 5718 5717 5716 5714 5713 5712 5710 5709 5708 5707 5706 5705 5705 5704 5704 5703 5702 5702
5787 5793 5794 5793 5791 5790 5788 5788 5791 5789 5783 5778 5779 5783 5782 5778 5776 5774 5772 5768 5765 5763 5760 5762 5758 5743 5743 5756 5761 5763 5765 5765 5766 5768 5767 5761 5756 5754 5752 5752 5752 5751 5750 5749 5748 5747 5745 5744 5742 5740 5738 5737 5736 5735 5733 5732 5731 5729 5728 5727 5725 5723 5721 5719 5717 5716 5715 5713 5712 5711 5710 5708 5707 5706 5705 5703 5702 5702 5700 5699 5699 5698 5697 5697 5696 5695
5784 5789 5788 5787 5786 5784 5783 5784 5786 5785 5779 5773 5773 5777 5775 5773 5772 5768 5767 5764 5760 5759 5752 5755 5762 5745 5730 5741 5753 5753 5755 5757 5760 5763 5763 5759 5753 5749 5746 5744 5746 5747 5745 5745 5744 5743 5741 5739 5737 5735 5733 5732 5730 5729 5728 5726 5725 5724 5723 5722 5719 5717 5715 5713 5711 5710 5708 5707 5706 5705 5703 5703 5701 5700 5699 5698 5696 5695 5695 5693 5692 5692 5691 5690 5689 5688
5779 5781 5782 5781 5779 5778 5779 5780 5780 5779 5774 5769 5769 5770 5769 5768 5766 5763 5762 5759 5756 5752 5744 5748 5761 5749 5727 5731 5742 5743 5748 5753 5756 5758 5757 5754 5751 5748 5743 5738 5739 5742 5741 5740 5739 5737 5736 5734 5732 5730 5727 5726 5725 5724 5722 5721 5720 5719 5718 5716 5714 5711 5709 5707 5705 5703 5702 5701 5700 5699 5697 5696 5695 5694 5693 5692 5690 5689 5688 5687 5686 5685 5684 5683 5682 5681
5773 5774 5776 5774 5773 5774 5775 5774 5773 5772 5769 5766 5765 5764 5764 5762 5760 5758 5755 5754 5752 5743 5738 5745 5755 5747 5727 5724 5730 5733 5741 5747 5750 5752 5750 5749 5747 5745 5742 5736 5733 5734 5734 5735 5733 5731 5730 5728 5726 5724 5722 5720 5719 5718 5717 5716 5716 5714 5714 5712 5708 5706 5703 5702 5699 5698 5696 5695 5694 5693 5691 5690 5688 5687 5687 5685 5684 5683 5682 5681 5680 5679 5678 5677 5675 5673
5768 5768 5767 5767 5769 5769 5769 5768 5767 5766 5763 5762 5761 5758 5758 5756 5753 5752 5748 5749 5746 5735 5736 5744 5748 5744 5727 5716 5721 5727 5733 5739 5743 5746 5745 5745 5744 5740 5739 5736 5731 5728 5727 5727 5726 5724 5723 5722 5720 5717 5716 5715 5713 5712 5711 5710 5710 5709 5708 5707 5703 5700 5698 5696 5694 5692 5691 5689 5688 5686 5685 5683 5682 5681 5680 5679 5678 5677 5676 5674 5673 5672 5670 5669 5668 5666
5761 5760 5760 5761 5763 5762 5761 5762 5761 5760 5758 5758 5757 5754 5752 5749 5746 5744 5741 5743 5740 5731 5734 5739 5738 5737 5724 5714 5720 5725 5726 5729 5736 5740 5739 5740 5740 5736 5734 5732 5728 5725 5722 5720 5718 5718 5717 5715 5713 5711 5709 5709 5707 5705 5704 5704 5704 5703 5702 5701 5697 5695 5693 5691 5688 5686 5685 5683 5682 5680 5679 5677 5676 5675 5674 5673 5671 5670 5669 5667 5666 5665 5663 5661 5660 5658
5754 5754 5755 5754 5755 5756 5756 5755 5754 5753 5753 5752 5751 5749 5746 5742 5738 5735 5733 5735 5735 5731 5731 5732 5729 5723 5715 5714 5722 5724 5722 5721 5726 5732 5734 5734 5733 5730 5728 5725 5723 5720 5717 5715 5713 5712 5710 5708 5706 5704 5703 5701 5699 5698 5697 5697 5697 5697 5696 5694 5691 5688 5687 5685 5682 5680 5678 5677 5675 5674 5672 5671 5669 5669 5667 5665 5664 5663 5661 5660 5658 5657 5655 5653 5652 5650
5745 5747 5749 5748 5749 5752 5750 5748 5747 5747 5747 5746 5745 5743 5740 5737 5732 5729 5728 5729 5728 5726 5725 5724 5721 5712 5708 5713 5719 5721 5719 5715 5718 5726 5728 5727 5726 5723 5721 5719 5716 5713 5710 5709 5707 5706 5704 5701 5699 5697 5696 5694 5691 5691 5691 5691 5690 5689 5689 5687 5684 5681 5680 5679 5677 5675 5673 5670 5669 5667 5666 5664 5662 5661 5660 5658 5657 5656 5654 5653 5651 5650 5648 5646 5644 5643
5737 5738 5742 5742 5743 5744 5742 5742 5741 5739 5739 5738 5737 5736 5732 5731 5728 5725 5726 5725 5720 5718 5717 5714 5709 5705 5705 5709 5711 5711 5712 5710 5713 5721 5723 5721 5719 5717 5715 5713 5709 5706 5704 5702 5701 5699 5698 5696 5693 5691 5689 5686 5685 5685 5685 5685 5683 5682 5681 5679 5677 5675 5674 5672 5670 5668 5667 5665 5663 5661 5660 5658 5656 5654 5653 5651 5650 5648 5647 5645 5644 5642 5641 5639 5637 5635
5730 5730 5734 5733 5734 5736 5735 5736 5735 5732 5731 5729 5729 5727 5723 5726 5726 5721 5720 5718 5714 5711 5708 5703 5700 5701 5704 5705 5704 5703 5703 5704 5707 5714 5717 5715 5713 5711 5709 5707 5703 5700 5698 5696 5694 5693 5692 5690 5688 5685 5682 5679 5678 5680 5680 5678 5677 5675 5674 5672 5670 5669 5667 5666 5664 5662 5660 5659 5657 5655 5653 5652 5650 5647 5646 5644 5643 5641 5639 5638 5636 5635 5633 5631 5629 5628
5724 5722 5726 5725 5724 5727 5728 5728 5728 5726 5723 5721 5720 5719 5719 5721 5720 5714 5711 5711 5709 5702 5698 5697 5694 5695 5700 5698 5696 5698 5698 5698 5702 5708 5710 5707 5706 5705 5702 5700 5698 5695 5692 5690 5689 5687 5686 5684 5682 5678 5675 5673 5673 5674 5673 5672 5670 5668 5667 5666 5664 5662 5661 5659 5657 5655 5654 5652 5650 5648 5647 5645 5643 5641 5639 5637 5635 5633 5632 5630 5629 5627 5625 5624 5622 5620
5716 5713 5718 5719 5715 5718 5719 5719 5720 5719 5715 5713 5714 5715 5716 5714 5710 5707 5704 5702 5701 5694 5691 5694 5691 5691 5693 5689 5686 5690 5691 5690 5695 5702 5702 5700 5699 5698 5695 5694 5692 5689 5686 5684 5683 5681 5679 5677 5675 5673 5670 5668 5667 5667 5666 5664 5662 5661 5660 5659 5657 5656 5655 5652 5650 5649 5647 5646 5644 5642 5640 5638 5636 5634 5632 5630 5628 5626 5624 5622 5621 5619 5617 5616 5614 5612
5710 5704 5708 5711 5707 5708 5711 5710 5709 5709 5708 5707 5709 5710 5708 5703 5700 5700 5697 5694 5694 5688 5685 5689 5689 5687 5687 5685 5683 5682 5680 5682 5690 5694 5693 5693 5693 5691 5689 5688 5685 5683 5681 5679 5677 5674 5672 5670 5668 5667 5665 5663 5662 5660 5659 5657 5655 5655 5654 5652 5651 5649 5648 5646 5644 5643 5641 5639 5637 5635 5633 5631 5629 5627 5625 5623 5621 5619 5617 5615 5613 5611 5609 5608 5606 5604
5703 5696 5697 5702 5701 5699 5701 5702 5700 5701 5703 5702 5700 5699 5698 5695 5692 5689 5688 5687 5687 5682 5679 5682 5684 5681 5680 5683 5682 5677 5676 5680 5684 5685 5684 5685 5686 5684 5682 5681 5678 5676 5674 5672 5670 5668 5665 5662 5661 5661 5659 5657 5655 5653 5651 5649 5648 5648 5647 5645 5644 5643 5642 5640 5638 5636 5634 5633 5631 5629 5627 5624 5622 5620 5618 5616 5613 5611 5609 5607 5605 5603 5601 5600 5598 5596
5694 5688 5688 5692 5692 5690 5692 5695 5695 5696 5697 5692 5689 5688 5687 5687 5684 5679 5678 5681 5679 5674 5673 5675 5673 5673 5675 5675 5674 5674 5677 5679 5677 5675 5676 5678 5677 5675 5674 5672 5670 5668 5666 5664 5662 5659 5657 5655 5653 5652 5650 5648 5647 5645 5644 5643 5641 5641 5640 5638 5637 5636 5635 5633 5632 5630 5628 5626 5624 5622 5620 5617 5614 5612 5610 5608 5605 5603 5601 5599 5597 5595 5593 5591 5589 5588
5684 5681 5679 5679 5680 5681 5685 5690 5689 5687 5685 5681 5679 5679 5679 5679 5677 5671 5668 5672 5671 5665 5666 5666 5660 5663 5670 5668 5666 5671 5675 5674 5671 5669 5670 5670 5668 5666 5665 5663 5661 5659 5657 5654 5652 5650 5649 5647 5645 5643 5641 5640 5639 5638 5637 5636 5635 5633 5632 5631 5630 5629 5627 5625 5624 5622 5620 5619 5616 5614 5612 5610 5607 5604 5602 5600 5597 5595 5593 5591 5589 5587 5585 5583 5581 5579
5676 5671 5668 5667 5669 5673 5677 5680 5679 5676 5674 5671 5668 5671 5672 5671 5670 5664 5658 5661 5663 5657 5659 5657 5645 5649 5664 5665 5663 5668 5669 5667 5665 5663 5663 5662 5659 5657 5656 5655 5653 5650 5647 5645 5644 5643 5642 5640 5637 5634 5633 5633 5632 5632 5630 5628 5627 5625 5624 5623 5622 5621 5620 5617 5616 5614 5612 5611 5608 5606 5604 5602 5599 5596 5594 5591 5589 5587 5585 5583 5581 5579 5577 5574 5572 5570
5668 5660 5657 5657 5656 5660 5666 5669 5670 5667 5663 5659 5660 5666 5665 5661 5662 5659 5653 5652 5651 5648 5652 5646 5628 5636 5658 5661 5661 5665 5663 5660 5660 5657 5656 5654 5651 5648 5647 5646 5644 5641 5639 5638 5637 5636 5634 5632 5629 5627 5626 5626 5625 5624 5622 5620 5618 5616 5615 5614 5613 5612 5611 5609 5607 5606 5604 5602 5599 5598 5596 5593 5591 5588 5585 5583 5580 5578 5577 5575 5573 5571 5568 5566 5563 5561
5658 5650 5649 5647 5642 5645 5654 5659 5660 5659 5655 5652 5655 5658 5656 5654 5654 5650 5646 5642 5636 5638 5644 5633 5617 5630 5652 5654 5654 5659 5656 5653 5654 5652 5650 5647 5644 5641 5639 5637 5635 5634 5633 5632 5629 5628 5626 5624 5622 5620 5618 5618 5618 5616 5615 5612 5610 5608 5607 5606 5604 5603 5602 5600 5599 5597 5595 5593 5590 5589 5587 5584 5582 5579 5576 5574 5572 5570 5568 5566 5564 5562 5560 5557 5554 5552
5646 5641 5639 5637 5631 5631 5640 5649 5652 5650 5647 5645 5646 5647 5647 5647 5644 5638 5636 5631 5623 5628 5632 5621 5612 5625 5642 5646 5646 5650 5649 5645 5646 5646 5642 5639 5637 5634 5632 5629 5628 5627 5626 5624 5622 5619 5618 5617 5616 5613 5611 5610 5609 5608 5606 5604 5602 5601 5599 5597 5596 5594 5593 5591 5590 5588 5586 5584 5582 5579 5577 5575 5573 5570 5567 5565 5563 5562 5560 5557 5556 5553 5550 5548 5545 5543
5631 5629 5629 5628 5622 5621 5627 5638 5644 5642 5635 5633 5637 5638 5636 5636 5634 5629 5623 5618 5618 5619 5615 5614 5616 5616 5625 5636 5639 5641 5642 5638 5637 5638 5634 5630 5628 5626 5624 5623 5621 5620 5619 5616 5613 5612 5611 5610 5608 5606 5604 5602 5601 5599 5598 5597 5595 5593 5591 5589 5588 5586 5584 5583 5581 5579 5577 5575 5573 5570 5568 5566 5564 5561 5559 5557 5555 5553 5550 5548 5546 5544 5541 5538 5536 5533
5619 5616 5620 5620 5615 5615 5618 5623 5632 5633 5625 5623 5625 5626 5626 5626 5624 5619 5612 5612 5618 5608 5596 5608 5619 5609 5609 5624 5629 5631 5632 5628 5628 5629 5626 5622 5620 5617 5616 5615 5613 5612 5610 5608 5606 5606 5605 5603 5601 5600 5597 5595 5593 5592 5590 5589 5587 5585 5583 5582 5580 5578 5577 5575 5572 5570 5568 5565 5563 5561 5559 5557 5554 5552 5550 5548 5546 5543 5541 5539 5537 5534 5532 5529 5527 5524
5610 5604 5611 5613 5607 5608 5610 5610 5616 5621 5617 5613 5611 5612 5616 5615 5611 5611 5608 5608 5609 5595 5588 5603 5612 5603 5603 5613 5617 5620 5621 5618 5618 5619 5618 5616 5614 5611 5608 5606 5605 5604 5602 5601 5601 5600 5599 5596 5594 5592 5590 5588 5586 5584 5581 5580 5578 5577 5575 5574 5572 5570 5568 5566 5563 5561 5558 5555 5553 5551 5549 5547 5545 5543 5541 5538 5537 5534 5532 5530 5527 5525 5523 5520 5518 5515
5600 5595 5602 5603 5597 5597 5601 5601 5604 5607 5605 5603 5601 5601 5603 5601 5603 5606 5601 5596 5595 5589 5588 5598 5598 5594 5599 5604 5606 5608 5609 5609 5609 5609 5609 5609 5607 5605 5599 5595 5596 5597 5596 5595 5594 5592 5591 5589 5587 5584 5582 5580 5578 5575 5572 5570 5569 5568 5566 5565 5563 5561 5559 5557 5553 5551 5548 5545 5544 5542 5540 5538 5536 5534 5531 5529 5527 5525 5523 5521 5519 5516 5514 5511 5509 5507
5592 5588 5592 5593 5585 5584 5592 5596 5595 5594 5592 5591 5591 5591 5590 5590 5595 5597 5590 5586 5587 5586 5587 5589 5582 5582 5593 5598 5597 5598 5599 5599 5599 5599 5600 5600 5599 5598 5591 5585 5587 5590 5590 5588 5584 5581 5581 5580 5578 5576 5573 5572 5570 5566 5564 5562 5560 5559 5557 5556 5554 5552 5550 5547 5543 5541 5538 5536 5534 5533 5531 5529 5526 5524 5523 5520 5518 5516 5514 5512 5510 5507 5505 5503 5501 5499
5584 5580 5582 5584 5573 5569 5584 5589 5584 5584 5580 5574 5576 5583 5585 5585 5585 5584 5582 5581 5581 5579 5578 5576 5570 5573 5586 5592 5589 5589 5591 5590 5590 5591 5591 5589 5591 5589 5581 5577 5580 5582 5582 5579 5574 5572 5571 5570 5569 5567 5565 5563 5561 5558 5556 5554 5552 5550 5548 5546 5544 5542 5540 5537 5534 5531 5529 5527 5526 5524 5522 5520 5518 5516 5514 5511 5509 5507 5505 5503 5501 5498 5496 5495 5493 5490
5576 5571 5572 5574 5561 5558 5575 5579 5574 5572 5560 5553 5569 5584 5583 5578 5574 5571 5572 5574 5573 5570 5565 5563 5564 5569 5577 5579 5579 5581 5584 5583 5583 5582 5579 5578 5580 5577 5570 5570 5572 5573 5572 5569 5565 5564 5562 5560 5560 5559 5556 5554 5551 5549 5547 5545 5543 5541 5538 5536 5535 5532 5529 5527 5525 5522 5521 5519 5517 5515 5513 5511 5509 5507 5504 5502 5500 5498 5496 5494 5492 5490 5488 5486 5484 5482
5567 5565 5564 5563 5552 5548 5562 5570 5564 5549 5536 5545 5573 5582 5572 5568 5567 5564 5564 5566 5567 5565 5559 5556 5560 5564 5566 5567 5569 5571 5574 5576 5575 5570 5567 5567 5567 5563 5560 5561 5563 5562 5560 5558 5557 5556 5553 5550 5550 5549 5548 5545 5543 5540 5538 5536 5534 5531 5529 5527 5525 5523 5521 5518 5516 5514 5512 5510 5508 5506 5504 5502 5500 5498 5496 5493 5492 5490 5488 5485 5483 5481 5480 5478 5476 5473
5558 5557 5554 5552 5545 5540 5550 5558 5543 5523 5528 5553 5568 5565 5560 5563 5563 5558 5554 5557 5561 5560 5557 5554 5552 5555 5558 5559 5561 5563 5565 5567 5562 5555 5555 5558 5557 5553 5548 5548 5550 5550 5549 5548 5547 5546 5544 5541 5539 5538 5538 5536 5534 5532 5530 5527 5525 5522 5521 5519 5517 5514 5512 5510 5508 5506 5504 5502 5500 5498 5496 5493 5491 5489 5487 5485 5483 5481 5479 5477 5475 5473 5471 5469 5467 5464
5549 5548 5545 5544 5539 5533 5535 5534 5521 5516 5532 5547 5548 5551 5558 5559 5556 5550 5542 5544 5554 5555 5551 5547 5545 5548 5551 5552 5555 5557 5556 5552 5544 5540 5545 5549 5549 5545 5538 5535 5537 5539 5538 5537 5536 5535 5534 5532 5529 5528 5527 5526 5525 5524 5521 5519 5517 5514 5513 5512 5509 5507 5505 5502 5501 5499 5497 5495 5493 5490 5488 5485 5483 5481 5479 5476 5474 5472 5470 5468 5466 5465 5462 5460 5457 5454
5540 5537 5536 5533 5528 5526 5521 5514 5512 5514 5518 5522 5532 5549 5556 5551 5550 5546 5529 5525 5540 5546 5542 5540 5540 5544 5547 5546 5547 5547 5543 5536 5528 5529 5537 5541 5539 5535 5529 5525 5526 5528 5527 5527 5525 5524 5523 5522 5521 5519 5518 5518 5516 5515 5513 5510 5508 5506 5504 5503 5501 5499 5496 5495 5493 5491 5488 5486 5484 5482 5480 5477 5475 5473 5470 5468 5466 5464 5462 5460 5458 5456 5453 5451 5448 5445
5528 5526 5526 5521 5515 5516 5512 5503 5502 5499 5497 5508 5527 5544 5550 5545 5544 5541 5520 5505 5516 5530 5535 5538 5537 5538 5541 5538 5534 5534 5530 5521 5514 5520 5531 5534 5530 5526 5520 5516 5517 5517 5516 5516 5515 5514 5512 5511 5511 5510 5509 5509 5508 5506 5504 5502 5499 5498 5496 5494 5492 5489 5487 5485 5484 5482 5479 5477 5475 5473 5471 5469 5467 5465 5463 5460 5459 5457 5454 5452 5449 5446 5444 5441 5439 5436
5516 5514 5517 5510 5501 5504 5501 5491 5488 5484 5485 5502 5520 5532 5540 5538 5537 5533 5505 5480 5491 5515 5528 5533 5532 5529 5528 5524 5521 5522 5518 5508 5505 5514 5524 5525 5521 5517 5512 5508 5508 5507 5506 5505 5504 5502 5502 5501 5500 5500 5499 5499 5498 5496 5494 5492 5489 5488 5486 5484 5482 5480 5478 5476 5474 5472 5470 5468 5467 5465 5463 5461 5459 5457 5455 5452 5451 5448 5445 5443 5441 5438 5435 5432 5429 5427
5505 5503 5504 5497 5490 5493 5490 5478 5474 5474 5479 5495 5509 5519 5528 5532 5531 5515 5478 5464 5489 5511 5516 5519 5516 5513 5513 5511 5508 5508 5504 5498 5499 5505 5513 5514 5510 5507 5504 5501 5499 5497 5496 5496 5494 5492 5491 5490 5490 5489 5489 5488 5487 5485 5484 5481 5480 5478 5477 5475 5473 5471 5470 5468 5465 5463 5462 5460 5458 5456 5454 5453 5450 5448 5446 5443 5441 5439 5437 5435 5432 5429 5426 5423 5420 5417
5492 5490 5487 5484 5480 5482 5478 5467 5463 5464 5473 5488 5499 5507 5518 5521 5508 5483 5464 5476 5500 5504 5500 5502 5499 5497 5499 5497 5495 5494 5493 5492 5493 5493 5498 5501 5499 5496 5495 5492 5490 5488 5487 5487 5486 5484 5482 5480 5479 5478 5478 5478 5477 5476 5474 5472 5471 5470 5468 5466 5465 5464 5462 5459 5457 5455 5453 5451 5450 5448 5446 5444 5441 5439 5437 5435 5433 5431 5428 5426 5424 5421 5418 5414 5411 5409
5480 5477 5473 5472 5471 5470 5467 5460 5452 5449 5462 5483 5494 5499 5506 5497 5476 5465 5473 5488 5493 5488 5487 5487 5482 5481 5483 5481 5482 5483 5482 5483 5484 5481 5483 5486 5485 5485 5484 5482 5480 5480 5478 5477 5476 5475 5474 5471 5469 5468 5468 5467 5467 5466 5465 5463 5462 5461 5460 5458 5457 5455 5453 5451 5449 5447 5445 5443 5442 5440 5437 5435 5433 5431 5429 5427 5425 5423 5420 5418 5415 5412 5409 5406 5403 5400
5469 5467 5461 5460 5463 5462 5455 5449 5442 5438 5453 5477 5486 5484 5481 5470 5461 5467 5475 5476 5475 5475 5474 5471 5469 5470 5469 5467 5469 5470 5469 5470 5472 5470 5472 5473 5472 5473 5473 5471 5470 5469 5469 5468 5466 5466 5465 5462 5461 5459 5457 5457 5457 5456 5455 5454 5453 5453 5452 5450 5449 5447 5444 5442 5440 5439 5437 5435 5433 5431 5429 5427 5425 5423 5421 5419 5417 5415 5412 5410 5407 5403 5400 5397 5394 5392
5458 5457 5451 5449 5453 5451 5440 5436 5437 5440 5451 5465 5467 5463 5462 5458 5457 5463 5462 5458 5462 5463 5460 5457 5458 5458 5457 5456 5456 5456 5456 5458 5459 5460 5461 5461 5460 5461 5462 5461 5460 5459 5459 5459 5457 5457 5456 5454 5452 5451 5448 5448 5448 5446 5446 5444 5444 5444 5444 5442 5440 5438 5436 5434 5432 5430 5429 5427 5425 5423 5421 5419 5417 5415 5413 5411 5409 5407 5404 5401 5398 5395 5391 5388 5386 5383
5447 5449 5443 5439 5439 5436 5429 5429 5434 5438 5444 5451 5450 5448 5451 5450 5449 5449 5446 5444 5446 5447 5447 5448 5447 5448 5450 5447 5443 5444 5446 5447 5448 5449 5450 5449 5450 5450 5449 5449 5450 5449 5449 5449 5448 5448 5447 5445 5444 5442 5440 5440 5439 5437 5436 5435 5434 5434 5434 5433 5431 5429 5427 5425 5424 5422 5420 5419 5417 5415 5413 5411 5409 5407 5405 5403 5400 5398 5395 5392 5389 5386 5383 5381 5378 5376
5434 5435 5433 5429 5427 5425 5423 5424 5427 5428 5433 5439 5440 5438 5437 5436 5436 5435 5433 5432 5432 5434 5437 5438 5438 5440 5442 5437 5434 5435 5437 5438 5438 5438 5437 5437 5437 5437 5437 5439 5440 5440 5440 5440 5440 5439 5437 5436 5435 5434 5433 5431 5430 5428 5426 5425 5424 5424 5424 5423 5421 5419 5417 5416 5415 5413 5412 5410 5408 5406 5404 5402 5400 5398 5396 5394 5392 5390 5387 5384 5382 5379 5376 5373 5371 5368
5423 5424 5421 5419 5417 5415 5413 5415 5419 5421 5424 5429 5430 5428 5425 5423 5422 5424 5423 5421 5422 5422 5423 5425 5427 5428 5429 5427 5426 5425 5425 5427 5427 5426 5426 5426 5424 5425 5428 5429 5429 5430 5430 5430 5430 5429 5427 5427 5426 5425 5424 5422 5421 5419 5416 5415 5414 5414 5413 5412 5411 5409 5408 5407 5406 5404 5403 5401 5399 5397 5395 5393 5392 5389 5387 5385 5383 5382 5379 5377 5374 5371 5368 5365 5363 5361
5413 5414 5409 5406 5405 5403 5401 5405 5412 5413 5415 5420 5419 5414 5412 5411 5410 5413 5412 5409 5409 5409 5410 5412 5414 5415 5415 5416 5415 5413 5414 5416 5416 5415 5416 5415 5414 5415 5418 5417 5418 5419 5419 5419 5419 5418 5417 5417 5417 5416 5415 5414 5412 5410 5407 5405 5405 5404 5403 5402 5401 5399 5399 5398 5396 5395 5394 5392 5390 5388 5386 5384 5382 5380 5378 5376 5375 5373 5370 5368 5365 5362 5360 5357 5355 5353
5399 5398 5395 5394 5392 5389 5391 5400 5406 5403 5403 5408 5405 5398 5397 5399 5398 5400 5400 5398 5398 5399 5398 5399 5400 5401 5401 5403 5403 5403 5403 5405 5406 5406 5405 5405 5406 5407 5407 5405 5406 5406 5405 5406 5407 5407 5408 5408 5407 5406 5406 5406 5404 5401 5397 5396 5395 5395 5394 5392 5390 5390 5389 5388 5387 5386 5384 5383 5381 5379 5377 5376 5373 5371 5370 5368 5366 5364 5361 5359 5356 5354 5351 5349 5347 5345
5384 5380 5384 5384 5376 5375 5384 5394 5396 5387 5382 5387 5388 5383 5385 5390 5388 5386 5386 5387 5388 5389 5388 5386 5386 5387 5388 5390 5392 5391 5390 5392 5397 5396 5394 5395 5397 5397 5396 5396 5394 5393 5393 5394 5394 5395 5398 5399 5398 5397 5396 5396 5395 5392 5389 5388 5388 5386 5385 5382 5380 5380 5380 5379 5378 5377 5375 5374 5372 5370 5368 5367 5365 5363 5361 5359 5358 5355 5353 5350 5348 5346 5343 5341 5339 5337
5374 5371 5374 5371 5364 5366 5375 5379 5377 5368 5362 5365 5370 5371 5375 5379 5376 5372 5372 5373 5374 5376 5377 5375 5372 5373 5376 5379 5381 5380 5377 5378 5382 5383 5382 5383 5385 5385 5385 5384 5381 5380 5381 5381 5381 5383 5386 5388 5387 5386 5385 5384 5383 5381 5380 5379 5379 5378 5375 5372 5370 5369 5369 5369 5369 5368 5367 5366 5364 5361 5359 5358 5356 5355 5353 5352 5350 5347 5345 5342 5340 5338 5335 5333 5331 5329